Preview of NWS' New Version of Forecast
This preview is not operational and should not be used for support decisions.

Regional Weather Roundup (RWR)

Issued by National Weather Service (NWS)

                            
000
ASUS43 KDMX 200901
RWRIA 

WEATHER ROUNDUP FOR IOWA
NATIONAL WEATHER SERVICE DES MOINES IA
400 AM CDT SAT APR 20 2019

NOTE: "FAIR" INDICATES FEW OR NO CLOUDS BELOW 12,000 FEET WITH NO
SIGNIFICANT WEATHER AND/OR OBSTRUCTIONS TO VISIBILITY.

* - THESE STATIONS ARE NOT NWS STATIONS...THUS NOT UNDER NWS
QUALITY CONTROL.  THEY ALSO DO NOT REPORT WEATHER SUCH 
AS PRECIPITATION OR FOG.  

IAZ001>003-012>014-020>022-031>034-043>046-201000-
   NORTHWEST IOWA
  
CITY           SKY/WX    TMP DP  RH WIND       PRES   REMARKS
CARROLL *      CLEAR     41  32  70 S6        29.93S                  
CHEROKEE *     CLEAR     38  32  79 S3        29.91S                  
DENISON *      CLEAR     37  32  81 CALM      29.94F                  
LE MARS *      CLEAR     43  32  65 S7        29.89S                  
SHELDON *      CLEAR     41  34  75 S9        29.87F                  
SIOUX CITY     CLEAR     39  31  72 E9        29.90S WCI  33          
SPENCER        CLEAR     40  32  73 S9        29.90S WCI  34          
STORM LAKE *   CLEAR     41  28  60 S13       29.88F                  
$$
 
IAZ055>058-069>071-079>083-090>094-201000-
   SOUTHWEST IOWA
  
CITY           SKY/WX    TMP DP  RH WIND       PRES   REMARKS
ATLANTIC *     CLEAR     34  32  93 CALM      29.94S                  
AUDUBON *      CLEAR     32  28  86 CALM      29.95R                  
CLARINDA *     CLEAR     32  30  93 CALM      29.97S                  
COUNCIL BLFS * PTCLDY    50  27  40 S7        29.94R                  
CRESTON *      CLEAR     39  28  65 SE5       29.94F                  
HARLAN  *      CLEAR     37  32  81 CALM      29.94S                  
LAMONI         CLEAR     46  28  49 CALM      29.95S                  
RED OAK *      CLEAR     36  30  80 CALM      29.95S                  
SHENANDOAH *   CLEAR     39  34  81 CALM      29.95R                  
$$
 
IAZ047>049-059>061-072>074-084-201000-
   CENTRAL IOWA
  
CITY           SKY/WX    TMP DP  RH WIND       PRES   REMARKS
AMES           CLEAR     33  31  92 CALM      29.93F                  
ANKENY *       CLEAR     34  30  86 MISG      29.95F                  
BOONE *        CLEAR     45  30  57 S5        29.93S                  
CHARITON *     CLEAR     41  30  65 W6        29.94S                  
DES MOINES     CLEAR     44  29  55 CALM      29.94F                  
GRINNELL*      CLEAR     42  29  59 NE3       29.94F                  
KNOXVILLE *    CLEAR     39  30  70 W6        29.94S WCI  35          
MARSHALLTOWN   CLEAR     33  29  85 CALM      29.92F                  
NEWTON *       CLEAR     43  30  61 CALM      29.94S                  
PELLA *        CLEAR     38  29  69 CALM      29.95S                  
PERRY *        FAIR      37  32  81 CALM      29.94S                  
$$
 
IAZ004>006-015-016-023>025-035-036-201000-
   NORTH CENTRAL IOWA
  
CITY           SKY/WX    TMP DP  RH WIND       PRES   REMARKS
ALGONA *       PTCLDY    39  34  81 S8        29.90F WCI  34          
CLARION *      PTCLDY    39  32  75 S6        29.92S WCI  35          
ESTHERVILLE    CLEAR     36  31  82 S9        29.89F WCI  29          
FORT DODGE *   CLEAR     37  35  92 CALM      29.93S                  
MASON CITY     CLEAR     35  31  85 S5        29.93S WCI  31          
FOREST CITY *  FAIR      36  34  93 CALM      29.92S                  
IOWA FALLS *   FAIR      38  32  77 CALM      29.93F                  
$$

IAZ007>011-017>019-026>030-037>042-050>054-066-201000-
   NORTHEAST IOWA
  
CITY           SKY/WX    TMP DP  RH WIND       PRES   REMARKS
CEDAR RAPIDS   FAIR      38  28  67 NW5       29.92S WCI  34          
CHARLES CITY * FAIR      37  30  75 SE3       29.92F                  
CLINTON *      FAIR      36  25  64 N7        29.92S WCI  30          
DECORAH *      FAIR      37  28  70 CALM      29.92S                  
DUBUQUE        FAIR      33  24  69 N5        29.91F WCI  29          
MONTICELLO *   FAIR      30  28  93 CALM      29.92F                  
OELWEIN *      FAIR      37  30  75 CALM      29.93S                  
WATERLOO       FAIR      33  29  85 CALM      29.92F                  
$$
 
IAZ064-065-067-068-078-201000-
   EAST CENTRAL IOWA
  
CITY           SKY/WX    TMP DP  RH WIND       PRES   REMARKS
DAVENPORT      FAIR      35  25  66 N7        29.92S WCI  29          
IOWA CITY      FAIR      36  29  75 CALM      29.94S                  
MT. PLEASANT * CLEAR     41  32  70 N7        29.92S                  
MUSCATINE *    FAIR      36  28  75 CALM      29.93R                  
QUAD CITIES    FAIR      38  27  64 CALM      29.90S                  
$$
 
IAZ062-063-075>077-085>089-095>099-201000-
   SOUTHEAST IOWA
  
CITY           SKY/WX    TMP DP  RH WIND       PRES   REMARKS
BURLINGTON     CLEAR     42  26  53 NW7       29.90S                  
FAIRFIELD *    CLEAR     36  25  64 N6        29.92S WCI  31          
FORT MADISON * CLEAR     39  28  65 NW5       29.92R                  
KEOKUK *       CLEAR     43  28  56 NW6       29.90S                  
OSKALOOSA *    FAIR      37  27  68 N7        29.93F WCI  32          
CENTERVILLE *  FAIR      36  32  87 W6        29.95S WCI  31          
OTTUMWA        CLEAR     40  27  59 NW6       29.93S                  
WASHINGTON *   CLEAR     39  28  65 N5        29.93S                  
$$

ABBREVIATIONS USED IN REMARKS
   TC - TEMPERATURES IN CELSIUS
  WCI - WIND CHILL INDEX
   HX - HEAT INDEX
  VSB - VISIBILITY  
$$